Powrót do katalogu

STARLINK-35834

AktywnyŁącznośćVLEO
NORAD 66570·PAYLOAD·🇺🇸 United States

Wystrzelony Nov 21, 2025 z Cape Canaveral Space Force Station

Loading…

Następne Przeloty (najbliższe 24 godziny)

TLE

ŚwieżeSource: CelesTrak SupGP

Epoka: Sep 14, 2026, 22:03 UTC

1 66570C 25268P   26257.91923611 -.00006290  00000+0 -22772-3 0  2579
2 66570  43.0023 358.8407 0001666 265.7538 137.1381 15.27598500    15

Śledź STARLINK-35834 w czasie rzeczywistym z AllMySat

Download on the App Store